• In Deutschland
  • Länderverzeichnis
  • Für 7 Tage
  • Wassertemperatur
  • Satellitenkarten
  • Wetterkarte
  • Widgets
  • user-avatar
    Anmelden

    Stündliche Wetter Zchaltubo

    Heute, 15 Dezember, Freitag

    Zeit Temperatur Niederschläge Wind Luftdruck Luftfeuchtigkeit
    00:00 +10°C° 0 mm 2 m/S 744 mmHg 53%
    01:00 +10°C° 0 mm 2 m/S 745 mmHg 53%
    02:00 +9°C° 0 mm 2 m/S 745 mmHg 54%
    03:00 +9°C° 0 mm 2 m/S 744 mmHg 50%
    04:00 +9°C° 0 mm 2 m/S 744 mmHg 51%
    05:00 +9°C° 0 mm 2 m/S 745 mmHg 52%
    06:00 +9°C° 0 mm 2 m/S 745 mmHg 54%
    07:00 +9°C° 0 mm 2 m/S 745 mmHg 54%
    08:00 +10°C° 0 mm 2 m/S 745 mmHg 54%
    09:00 +10°C° 0 mm 2 m/S 745 mmHg 55%
    10:00 +13°C° 0 mm 1 m/S 745 mmHg 51%
    11:00 +15°C° 0 mm 1 m/S 745 mmHg 48%
    12:00 +16°C° 0 mm 1 m/S 745 mmHg 45%
    13:00 +16°C° 0 mm 1 m/S 745 mmHg 48%
    14:00 +16°C° 0 mm 1 m/S 745 mmHg 50%
    15:00 +15°C° 0 mm 0 m/S 745 mmHg 53%
    16:00 +14°C° 0 mm 1 m/S 746 mmHg 56%
    17:00 +13°C° 0 mm 1 m/S 746 mmHg 59%
    18:00 +11°C° 0 mm 1 m/S 747 mmHg 61%
    19:00 +11°C° 0 mm 1 m/S 747 mmHg 62%
    20:00 +9°C° 0 mm 2 m/S 748 mmHg 62%
    21:00 +9°C° 0 mm 2 m/S 748 mmHg 62%
    22:00 +9°C° 0 mm 2 m/S 748 mmHg 61%
    23:00 +9°C° 0 mm 2 m/S 749 mmHg 61%

    Morgen, 16 Dezember, Samstag

    Zeit Temperatur Niederschläge Wind Luftdruck Luftfeuchtigkeit
    00:00 +8°C° 0 mm 2 m/S 749 mmHg 60%
    01:00 +8°C° 0 mm 2 m/S 749 mmHg 59%
    02:00 +8°C° 0 mm 2 m/S 749 mmHg 59%
    03:00 +8°C° 0 mm 2 m/S 749 mmHg 58%
    04:00 +8°C° 0 mm 2 m/S 749 mmHg 57%
    05:00 +8°C° 0 mm 2 m/S 749 mmHg 56%
    06:00 +8°C° 0 mm 2 m/S 749 mmHg 55%
    07:00 +9°C° 0 mm 2 m/S 749 mmHg 54%
    08:00 +9°C° 0 mm 2 m/S 749 mmHg 53%
    09:00 +10°C° 0 mm 2 m/S 749 mmHg 51%
    10:00 +13°C° 0 mm 2 m/S 748 mmHg 49%
    11:00 +15°C° 0 mm 2 m/S 747 mmHg 46%
    12:00 +17°C° 0 mm 2 m/S 746 mmHg 43%
    13:00 +17°C° 0 mm 2 m/S 746 mmHg 45%
    14:00 +16°C° 0 mm 2 m/S 746 mmHg 47%
    15:00 +16°C° 0 mm 2 m/S 746 mmHg 49%
    16:00 +15°C° 0 mm 2 m/S 746 mmHg 49%
    17:00 +14°C° 0 mm 2 m/S 747 mmHg 50%
    18:00 +11°C° 0 mm 3 m/S 747 mmHg 50%
    19:00 +11°C° 0 mm 3 m/S 747 mmHg 49%
    20:00 +11°C° 0 mm 3 m/S 747 mmHg 47%
    21:00 +10°C° 0 mm 3 m/S 747 mmHg 45%
    22:00 +10°C° 0 mm 3 m/S 747 mmHg 45%
    23:00 +10°C° 0 mm 3 m/S 747 mmHg 44%

    übermorgen, 17 Dezember, Sonntag

    Zeit Temperatur Niederschläge Wind Luftdruck Luftfeuchtigkeit
    00:00 +10°C° 0 mm 3 m/S 747 mmHg 44%
    01:00 +10°C° 0 mm 3 m/S 747 mmHg 44%
    02:00 +9°C° 0 mm 3 m/S 747 mmHg 44%
    03:00 +9°C° 0 mm 3 m/S 747 mmHg 44%
    04:00 +9°C° 0 mm 3 m/S 747 mmHg 44%
    05:00 +9°C° 0 mm 3 m/S 747 mmHg 44%
    06:00 +9°C° 0 mm 3 m/S 746 mmHg 43%
    07:00 +10°C° 0 mm 3 m/S 746 mmHg 43%
    08:00 +10°C° 0 mm 3 m/S 746 mmHg 43%
    09:00 +11°C° 0 mm 3 m/S 746 mmHg 42%
    10:00 +13°C° 0 mm 2 m/S 746 mmHg 41%
    11:00 +15°C° 0 mm 2 m/S 745 mmHg 40%
    12:00 +17°C° 0 mm 2 m/S 745 mmHg 39%
    13:00 +17°C° 0 mm 2 m/S 744 mmHg 42%
    14:00 +16°C° 0 mm 1 m/S 744 mmHg 45%
    15:00 +16°C° 0 mm 1 m/S 744 mmHg 48%
    16:00 +15°C° 0 mm 1 m/S 745 mmHg 49%
    17:00 +14°C° 0 mm 2 m/S 745 mmHg 51%
    18:00 +13°C° 0 mm 2 m/S 746 mmHg 52%
    19:00 +12°C° 0 mm 2 m/S 746 mmHg 52%
    20:00 +12°C° 0 mm 2 m/S 746 mmHg 52%
    21:00 +12°C° 0 mm 2 m/S 746 mmHg 52%
    22:00 +12°C° 0 mm 2 m/S 746 mmHg 52%
    23:00 +12°C° 0 mm 2 m/S 746 mmHg 52%

    18 Dezember, Montag

    Zeit Temperatur Niederschläge Wind Luftdruck Luftfeuchtigkeit
    00:00 +12°C° 0 mm 2 m/S 746 mmHg 53%
    01:00 +10°C° 0 mm 2 m/S 746 mmHg 53%
    02:00 +10°C° 0 mm 2 m/S 746 mmHg 54%
    03:00 +10°C° 0 mm 2 m/S 746 mmHg 55%
    04:00 +10°C° 0 mm 2 m/S 746 mmHg 55%
    05:00 +10°C° 0 mm 2 m/S 746 mmHg 55%
    06:00 +9°C° 0 mm 2 m/S 746 mmHg 55%
    07:00 +10°C° 0 mm 2 m/S 746 mmHg 55%
    08:00 +12°C° 0 mm 2 m/S 746 mmHg 55%
    09:00 +12°C° 0 mm 2 m/S 746 mmHg 56%
    10:00 +13°C° 0,1 mm 1 m/S 746 mmHg 56%
    11:00 +14°C° 0,1 mm 1 m/S 746 mmHg 57%
    12:00 +14°C° 0,1 mm 1 m/S 745 mmHg 58%
    13:00 +14°C° 0,1 mm 1 m/S 745 mmHg 60%
    14:00 +13°C° 0,1 mm 0 m/S 745 mmHg 61%
    15:00 +13°C° 0,1 mm 0 m/S 745 mmHg 63%
    16:00 +13°C° 0,2 mm 1 m/S 745 mmHg 64%
    17:00 +12°C° 0,2 mm 1 m/S 745 mmHg 66%
    18:00 +12°C° 0,2 mm 2 m/S 745 mmHg 67%
    19:00 +10°C° 0 mm 2 m/S 745 mmHg 67%
    20:00 +10°C° 0 mm 2 m/S 745 mmHg 67%
    21:00 +10°C° 0 mm 2 m/S 745 mmHg 67%
    22:00 +10°C° 0 mm 2 m/S 745 mmHg 68%
    23:00 +10°C° 0 mm 2 m/S 744 mmHg 68%

    19 Dezember, Dienstag

    Zeit Temperatur Niederschläge Wind Luftdruck Luftfeuchtigkeit
    00:00 +10°C° 0 mm 2 m/S 744 mmHg 68%
    01:00 +10°C° 0,2 mm 2 m/S 744 mmHg 69%
    02:00 +10°C° 0,2 mm 2 m/S 744 mmHg 69%
    03:00 +10°C° 0,2 mm 2 m/S 744 mmHg 69%
    04:00 +10°C° 0,4 mm 2 m/S 744 mmHg 70%
    05:00 +10°C° 0,4 mm 2 m/S 744 mmHg 70%
    06:00 +10°C° 0,4 mm 2 m/S 744 mmHg 70%
    07:00 +10°C° 0,9 mm 2 m/S 745 mmHg 73%
    08:00 +10°C° 0,9 mm 2 m/S 746 mmHg 76%
    09:00 +11°C° 0,9 mm 1 m/S 746 mmHg 78%
    10:00 +11°C° 1,6 mm 1 m/S 746 mmHg 81%
    11:00 +10°C° 1,6 mm 1 m/S 747 mmHg 85%
    12:00 +10°C° 1,6 mm 1 m/S 747 mmHg 88%
    13:00 +10°C° 2,3 mm 1 m/S 747 mmHg 90%
    14:00 +9°C° 2,3 mm 2 m/S 748 mmHg 91%
    15:00 +9°C° 2,3 mm 2 m/S 748 mmHg 93%
    16:00 +9°C° 1,1 mm 2 m/S 749 mmHg 94%
    17:00 +8°C° 1,1 mm 2 m/S 750 mmHg 95%
    18:00 +8°C° 1,1 mm 2 m/S 750 mmHg 96%
    19:00 +8°C° 0,7 mm 2 m/S 751 mmHg 96%
    20:00 +8°C° 0,7 mm 2 m/S 751 mmHg 96%
    21:00 +8°C° 0,7 mm 2 m/S 751 mmHg 96%
    22:00 +9°C° 0,5 mm 1 m/S 752 mmHg 96%
    23:00 +8°C° 0,5 mm 1 m/S 752 mmHg 96%

    20 Dezember, Mittwoch

    Zeit Temperatur Niederschläge Wind Luftdruck Luftfeuchtigkeit
    00:00 +8°C° 0,5 mm 1 m/S 752 mmHg 96%
    01:00 +8°C° 0,3 mm 1 m/S 752 mmHg 96%
    02:00 +8°C° 0,3 mm 1 m/S 752 mmHg 95%
    03:00 +8°C° 0,3 mm 1 m/S 752 mmHg 95%
    04:00 +7°C° 0,1 mm 1 m/S 752 mmHg 95%
    05:00 +7°C° 0,1 mm 1 m/S 752 mmHg 95%
    06:00 +6°C° 0,1 mm 0 m/S 752 mmHg 95%
    07:00 +6°C° 0,1 mm 0 m/S 752 mmHg 93%
    08:00 +8°C° 0,1 mm 1 m/S 752 mmHg 91%
    09:00 +8°C° 0,1 mm 1 m/S 752 mmHg 89%
    10:00 +9°C° 0,1 mm 1 m/S 752 mmHg 84%
    11:00 +9°C° 0,1 mm 1 m/S 751 mmHg 79%
    12:00 +10°C° 0,1 mm 1 m/S 751 mmHg 75%
    13:00 +10°C° 0,1 mm 1 m/S 750 mmHg 75%
    14:00 +10°C° 0,1 mm 1 m/S 750 mmHg 75%
    15:00 +10°C° 0,1 mm 1 m/S 750 mmHg 75%
    16:00 +9°C° 0,3 mm 1 m/S 750 mmHg 79%
    17:00 +9°C° 0,3 mm 1 m/S 750 mmHg 82%
    18:00 +8°C° 0,3 mm 1 m/S 750 mmHg 85%
    19:00 +8°C° 0,3 mm 1 m/S 750 mmHg 85%
    20:00 +8°C° 0,3 mm 1 m/S 750 mmHg 85%
    21:00 +8°C° 0,3 mm 1 m/S 750 mmHg 84%
    22:00 +7°C° 0,2 mm 1 m/S 750 mmHg 85%
    23:00 +7°C° 0,2 mm 1 m/S 750 mmHg 85%
    Mehr zeigen